Time,TemperatureF,DewpointF,PressureIn,WindDirection,WindDirectionDegrees,WindSpeedMPH,WindSpeedGustMPH,Humidity,HourlyPrecipIn,Conditions,Clouds,dailyrainin,SoftwareType,DateUTC
2013-04-22 00:02:00,59.4,36.3,29.94,North,0,0.0,0.0,42,0.00,,---,0.00,VWS V14.01,2013-04-22 07:02:00,
2013-04-22 00:07:00,59.2,36.1,29.94,North,0,0.0,0.0,42,0.00,,---,0.00,VWS V14.01,2013-04-22 07:07:00,
2013-04-22 00:12:00,59.0,36.0,29.94,NNE,22,0.0,0.0,42,0.00,,---,0.00,VWS V14.01,2013-04-22 07:12:00,
2013-04-22 00:17:00,58.8,36.4,29.94,NE,45,0.0,0.0,43,0.00,,---,0.00,VWS V14.01,2013-04-22 07:17:00,
2013-04-22 00:22:00,58.8,36.4,29.94,NNW,338,0.0,0.0,43,0.00,,---,0.00,VWS V14.01,2013-04-22 07:22:00,
2013-04-22 00:27:00,58.6,36.2,29.94,NNE,22,0.0,0.0,43,0.00,,---,0.00,VWS V14.01,2013-04-22 07:27:00,
2013-04-22 00:32:00,58.5,36.1,29.94,SSE,158,0.0,0.0,43,0.00,,---,0.00,VWS V14.01,2013-04-22 07:32:00,
2013-04-22 00:37:00,58.3,36.5,29.94,SE,135,0.0,0.0,44,0.00,,---,0.00,VWS V14.01,2013-04-22 07:37:00,
2013-04-22 00:42:00,58.1,36.3,29.94,SSE,158,0.0,0.0,44,0.00,,---,0.00,VWS V14.01,2013-04-22 07:42:00,
2013-04-22 00:47:00,58.1,36.3,29.94,SE,135,0.0,0.0,44,0.00,,---,0.00,VWS V14.01,2013-04-22 07:47:00,
2013-04-22 00:52:00,57.9,36.2,29.94,SE,135,0.0,0.0,44,0.00,,---,0.00,VWS V14.01,2013-04-22 07:52:00,
2013-04-22 00:57:00,57.7,36.0,29.94,NE,45,0.0,0.0,44,0.00,,---,0.00,VWS V14.01,2013-04-22 07:57:00,
2013-04-22 01:02:00,57.6,35.8,29.94,ENE,68,0.0,0.0,44,0.00,,---,0.00,VWS V14.01,2013-04-22 08:02:00,
2013-04-22 01:07:00,57.6,36.4,29.94,SE,135,0.0,0.0,45,0.00,,---,0.00,VWS V14.01,2013-04-22 08:07:00,
2013-04-22 01:12:00,57.6,36.4,29.94,East,90,0.0,0.0,45,0.00,,---,0.00,VWS V14.01,2013-04-22 08:12:00,
2013-04-22 01:17:00,57.4,36.2,29.94,NW,315,0.0,0.0,45,0.00,,---,0.00,VWS V14.01,2013-04-22 08:17:00,
2013-04-22 01:22:00,57.2,36.1,29.94,NNE,22,0.0,0.0,45,0.00,,---,0.00,VWS V14.01,2013-04-22 08:22:00,
2013-04-22 01:27:00,57.2,36.1,29.94,NNE,22,0.0,0.0,45,0.00,,---,0.00,VWS V14.01,2013-04-22 08:27:00,
2013-04-22 01:32:00,57.0,36.5,29.94,SSE,158,0.0,0.0,46,0.00,,---,0.00,VWS V14.01,2013-04-22 08:32:00,
2013-04-22 01:37:00,56.8,36.3,29.94,SSE,158,0.0,0.0,46,0.00,,---,0.00,VWS V14.01,2013-04-22 08:37:00,
2013-04-22 01:42:00,56.7,36.1,29.94,ENE,68,0.0,0.0,46,0.00,,---,0.00,VWS V14.01,2013-04-22 08:42:00,
2013-04-22 01:47:00,56.7,36.1,29.94,NE,45,0.0,0.0,46,0.00,,---,0.00,VWS V14.01,2013-04-22 08:47:00,
2013-04-22 01:52:00,56.7,36.1,29.94,NE,45,0.0,0.0,46,0.00,,---,0.00,VWS V14.01,2013-04-22 08:52:00,
2013-04-22 01:57:00,56.5,36.0,29.94,East,90,0.0,0.0,46,0.00,,---,0.00,VWS V14.01,2013-04-22 08:57:00,
2013-04-22 02:02:00,56.3,35.8,29.94,SE,135,0.0,0.0,46,0.00,,---,0.00,VWS V14.01,2013-04-22 09:02:00,
2013-04-22 02:07:00,56.3,35.8,29.94,ESE,112,0.0,0.0,46,0.00,,---,0.00,VWS V14.01,2013-04-22 09:07:00,
2013-04-22 02:12:00,56.1,35.6,29.91,ESE,112,0.0,0.0,46,0.00,,---,0.00,VWS V14.01,2013-04-22 09:12:00,
2013-04-22 02:17:00,56.1,35.6,29.91,SE,135,0.0,0.0,46,0.00,,---,0.00,VWS V14.01,2013-04-22 09:17:00,
2013-04-22 02:22:00,56.1,36.2,29.91,ENE,68,0.0,0.0,47,0.00,,---,0.00,VWS V14.01,2013-04-22 09:22:00,
2013-04-22 02:27:00,55.9,36.0,29.91,NNE,22,0.0,0.0,47,0.00,,---,0.00,VWS V14.01,2013-04-22 09:27:00,
2013-04-22 02:32:00,55.9,36.0,29.91,North,0,0.0,0.0,47,0.00,,---,0.00,VWS V14.01,2013-04-22 09:32:00,
2013-04-22 02:37:00,55.9,36.0,29.91,West,270,0.0,0.0,47,0.00,,---,0.00,VWS V14.01,2013-04-22 09:37:00,
2013-04-22 02:42:00,55.9,36.5,29.91,SW,225,0.0,0.0,48,0.00,,---,0.00,VWS V14.01,2013-04-22 09:42:00,
2013-04-22 02:47:00,55.8,36.4,29.91,ESE,112,0.0,0.0,48,0.00,,---,0.00,VWS V14.01,2013-04-22 09:47:00,
2013-04-22 02:52:00,55.6,36.2,29.91,ESE,112,0.0,0.0,48,0.00,,---,0.00,VWS V14.01,2013-04-22 09:52:00,
2013-04-22 02:57:00,55.6,36.2,29.91,ESE,112,0.0,0.0,48,0.00,,---,0.00,VWS V14.01,2013-04-22 09:57:00,
2013-04-22 03:02:00,55.4,36.1,29.91,ENE,68,0.0,0.0,48,0.00,,---,0.00,VWS V14.01,2013-04-22 10:02:00,
2013-04-22 03:07:00,55.2,35.9,29.91,NNE,22,0.0,0.0,48,0.00,,---,0.00,VWS V14.01,2013-04-22 10:07:00,
2013-04-22 03:12:00,55.2,36.4,29.91,NNE,22,0.0,0.0,49,0.00,,---,0.00,VWS V14.01,2013-04-22 10:12:00,
2013-04-22 03:17:00,55.0,36.2,29.91,NNW,338,0.0,0.0,49,0.00,,---,0.00,VWS V14.01,2013-04-22 10:17:00,
2013-04-22 03:22:00,55.0,36.2,29.91,NNW,338,0.0,0.0,49,0.00,,---,0.00,VWS V14.01,2013-04-22 10:22:00,
2013-04-22 03:27:00,54.9,36.1,29.91,SSE,158,0.0,0.0,49,0.00,,---,0.00,VWS V14.01,2013-04-22 10:27:00,
2013-04-22 03:32:00,54.7,35.9,29.91,SE,135,0.0,0.0,49,0.00,,---,0.00,VWS V14.01,2013-04-22 10:32:00,
2013-04-22 03:37:00,54.7,35.9,29.91,ESE,112,0.0,0.0,49,0.00,,---,0.00,VWS V14.01,2013-04-22 10:37:00,
2013-04-22 03:42:00,54.5,35.8,29.91,ESE,112,0.0,0.0,49,0.00,,---,0.00,VWS V14.01,2013-04-22 10:42:00,
2013-04-22 03:47:00,54.5,36.3,29.91,ENE,68,0.0,0.0,50,0.00,,---,0.00,VWS V14.01,2013-04-22 10:47:00,
2013-04-22 03:52:00,54.3,36.1,29.91,SE,135,0.0,0.0,50,0.00,,---,0.00,VWS V14.01,2013-04-22 10:52:00,
2013-04-22 03:58:00,54.3,36.1,29.91,NE,45,0.0,0.0,50,0.00,,---,0.00,VWS V14.01,2013-04-22 10:58:00,
2013-04-22 04:03:00,54.3,36.1,29.91,East,90,0.0,0.0,50,0.00,,---,0.00,VWS V14.01,2013-04-22 11:03:00,
2013-04-22 04:08:00,54.1,35.9,29.91,East,90,0.0,0.0,50,0.00,,---,0.00,VWS V14.01,2013-04-22 11:08:00,
2013-04-22 04:13:00,54.0,35.8,29.91,ESE,112,0.0,0.0,50,0.00,,---,0.00,VWS V14.01,2013-04-22 11:13:00,
2013-04-22 04:18:00,54.0,35.8,29.91,ESE,112,0.0,0.0,50,0.00,,---,0.00,VWS V14.01,2013-04-22 11:18:00,
2013-04-22 04:23:00,54.0,35.8,29.91,ESE,112,0.0,0.0,50,0.00,,---,0.00,VWS V14.01,2013-04-22 11:23:00,
2013-04-22 04:28:00,53.8,35.6,29.91,ENE,68,0.0,0.0,50,0.00,,---,0.00,VWS V14.01,2013-04-22 11:28:00,
2013-04-22 04:33:00,53.8,36.1,29.91,North,0,0.0,0.0,51,0.00,,---,0.00,VWS V14.01,2013-04-22 11:33:00,
2013-04-22 04:38:00,53.8,36.1,29.91,NNE,22,0.0,0.0,51,0.00,,---,0.00,VWS V14.01,2013-04-22 11:38:00,
2013-04-22 04:43:00,53.6,35.9,29.91,ESE,112,0.0,0.0,51,0.00,,---,0.00,VWS V14.01,2013-04-22 11:43:00,
2013-04-22 04:48:00,53.6,35.9,29.91,NE,45,0.0,0.0,51,0.00,,---,0.00,VWS V14.01,2013-04-22 11:48:00,
2013-04-22 04:53:00,53.6,35.9,29.91,SE,135,0.0,0.0,51,0.00,,---,0.00,VWS V14.01,2013-04-22 11:53:00,
2013-04-22 04:58:00,53.4,36.2,29.91,East,90,0.0,0.0,52,0.00,,---,0.00,VWS V14.01,2013-04-22 11:58:00,
2013-04-22 05:03:00,53.4,36.2,29.91,SSE,158,0.0,0.0,52,0.00,,---,0.00,VWS V14.01,2013-04-22 12:03:00,
2013-04-22 05:08:00,53.2,36.1,29.91,SSE,158,0.0,0.0,52,0.00,,---,0.00,VWS V14.01,2013-04-22 12:08:00,
2013-04-22 05:13:00,53.1,35.9,29.91,SSE,158,0.0,0.0,52,0.00,,---,0.00,VWS V14.01,2013-04-22 12:13:00,
2013-04-22 05:18:00,53.1,36.4,29.91,SE,135,0.0,0.0,53,0.00,,---,0.00,VWS V14.01,2013-04-22 12:18:00,
2013-04-22 05:23:00,53.1,36.4,29.91,North,0,0.0,0.0,53,0.00,,---,0.00,VWS V14.01,2013-04-22 12:23:00,
2013-04-22 05:28:00,53.1,36.4,29.91,NNE,22,0.0,0.0,53,0.00,,---,0.00,VWS V14.01,2013-04-22 12:28:00,
2013-04-22 05:33:00,52.9,36.2,29.91,NE,45,0.0,0.0,53,0.00,,---,0.00,VWS V14.01,2013-04-22 12:33:00,
2013-04-22 05:38:00,52.9,36.2,29.91,SE,135,0.0,0.0,53,0.00,,---,0.00,VWS V14.01,2013-04-22 12:38:00,
2013-04-22 05:43:00,52.7,36.1,29.91,SE,135,0.0,0.0,53,0.00,,---,0.00,VWS V14.01,2013-04-22 12:43:00,
2013-04-22 05:48:00,52.7,36.1,29.91,SSE,158,0.0,0.0,53,0.00,,---,0.00,VWS V14.01,2013-04-22 12:48:00,
2013-04-22 05:53:00,52.7,36.1,29.91,ESE,112,0.0,0.0,53,0.00,,---,0.00,VWS V14.01,2013-04-22 12:53:00,
2013-04-22 05:58:00,52.5,35.9,29.91,ESE,112,0.0,0.0,53,0.00,,---,0.00,VWS V14.01,2013-04-22 12:58:00,
2013-04-22 06:03:00,52.5,36.4,29.91,ESE,112,0.0,0.0,54,0.00,,---,0.00,VWS V14.01,2013-04-22 13:03:00,
2013-04-22 06:08:00,52.5,36.4,29.91,NE,45,0.0,0.0,54,0.00,,---,0.00,VWS V14.01,2013-04-22 13:08:00,
2013-04-22 06:13:00,52.5,36.4,29.91,SE,135,0.0,0.0,54,0.00,,---,0.00,VWS V14.01,2013-04-22 13:13:00,
2013-04-22 06:18:00,52.3,36.2,29.91,ESE,112,0.0,0.0,54,0.00,,---,0.00,VWS V14.01,2013-04-22 13:18:00,
2013-04-22 06:23:00,52.3,36.2,29.91,NE,45,0.0,0.0,54,0.00,,---,0.00,VWS V14.01,2013-04-22 13:23:00,
2013-04-22 06:28:00,52.3,36.7,29.91,NNW,338,0.0,0.0,55,0.00,,---,0.00,VWS V14.01,2013-04-22 13:28:00,
2013-04-22 06:33:00,52.3,36.2,29.91,NNE,22,0.0,0.0,54,0.00,,---,0.00,VWS V14.01,2013-04-22 13:33:00,
2013-04-22 06:38:00,52.3,36.2,29.91,ENE,68,0.0,0.0,54,0.00,,---,0.00,VWS V14.01,2013-04-22 13:38:00,
2013-04-22 06:43:00,52.3,36.7,29.91,North,0,0.0,0.0,55,0.00,,---,0.00,VWS V14.01,2013-04-22 13:43:00,
2013-04-22 06:48:00,52.3,36.7,29.91,ENE,68,0.0,0.0,55,0.00,,---,0.00,VWS V14.01,2013-04-22 13:48:00,
2013-04-22 06:53:00,52.3,36.7,29.91,SE,135,0.0,0.0,55,0.00,,---,0.00,VWS V14.01,2013-04-22 13:53:00,
2013-04-22 06:58:00,52.3,36.7,29.91,ESE,112,0.0,0.0,55,0.00,,---,0.00,VWS V14.01,2013-04-22 13:58:00,
2013-04-22 07:03:00,52.3,36.7,29.91,ENE,68,0.0,0.0,55,0.00,,---,0.00,VWS V14.01,2013-04-22 14:03:00,
2013-04-22 07:08:00,52.5,37.3,29.91,ENE,68,0.0,0.0,56,0.00,,---,0.00,VWS V14.01,2013-04-22 14:08:00,
2013-04-22 07:13:00,52.5,37.3,29.91,NE,45,0.0,0.0,56,0.00,,---,0.00,VWS V14.01,2013-04-22 14:13:00,
2013-04-22 07:18:00,52.5,37.3,29.91,NE,45,0.0,0.0,56,0.00,,---,0.00,VWS V14.01,2013-04-22 14:18:00,
2013-04-22 07:23:00,52.5,37.7,29.91,NE,45,0.0,0.0,57,0.00,,---,0.00,VWS V14.01,2013-04-22 14:23:00,
2013-04-22 07:28:00,52.5,37.7,29.91,SE,135,0.0,0.0,57,0.00,,---,0.00,VWS V14.01,2013-04-22 14:28:00,
2013-04-22 07:33:00,52.7,37.5,29.91,SE,135,0.0,0.0,56,0.00,,---,0.00,VWS V14.01,2013-04-22 14:33:00,
2013-04-22 07:38:00,52.9,38.1,29.91,South,180,0.0,0.0,57,0.00,,---,0.00,VWS V14.01,2013-04-22 14:38:00,
2013-04-22 07:43:00,53.1,38.2,29.91,South,180,0.0,0.0,57,0.00,,---,0.00,VWS V14.01,2013-04-22 14:43:00,
2013-04-22 07:48:00,53.1,38.2,29.91,NNW,338,0.0,0.0,57,0.00,,---,0.00,VWS V14.01,2013-04-22 14:48:00,
2013-04-22 07:53:00,53.1,38.2,29.91,NNW,338,0.0,0.0,57,0.00,,---,0.00,VWS V14.01,2013-04-22 14:53:00,
2013-04-22 07:58:00,53.4,38.6,29.94,NW,315,0.0,0.0,57,0.00,,---,0.00,VWS V14.01,2013-04-22 14:58:00,
2013-04-22 08:03:00,53.6,38.8,29.94,NW,315,0.0,0.0,57,0.00,,---,0.00,VWS V14.01,2013-04-22 15:03:00,
2013-04-22 08:08:00,53.8,39.4,29.94,West,270,0.0,0.0,58,0.00,,---,0.00,VWS V14.01,2013-04-22 15:08:00,
2013-04-22 08:13:00,54.0,39.1,29.94,NW,315,0.0,0.0,57,0.00,,---,0.00,VWS V14.01,2013-04-22 15:13:00,
2013-04-22 08:18:00,54.1,39.3,29.94,NW,315,0.0,0.0,57,0.00,,---,0.00,VWS V14.01,2013-04-22 15:18:00,
2013-04-22 08:23:00,54.5,39.6,29.94,WNW,292,0.0,0.0,57,0.00,,---,0.00,VWS V14.01,2013-04-22 15:23:00,
2013-04-22 08:28:00,54.7,39.8,29.94,WSW,248,0.0,0.0,57,0.00,,---,0.00,VWS V14.01,2013-04-22 15:28:00,
2013-04-22 08:33:00,55.0,40.1,29.94,SW,225,0.0,0.0,57,0.00,,---,0.00,VWS V14.01,2013-04-22 15:33:00,
2013-04-22 08:38:00,55.4,40.4,29.94,SE,135,0.0,0.0,57,0.00,,---,0.00,VWS V14.01,2013-04-22 15:38:00,
2013-04-22 08:43:00,55.6,41.0,29.94,West,270,2.7,2.7,58,0.00,,---,0.00,VWS V14.01,2013-04-22 15:43:00,
2013-04-22 08:48:00,55.9,40.9,29.94,West,270,0.0,0.0,57,0.00,,---,0.00,VWS V14.01,2013-04-22 15:48:00,
2013-04-22 08:53:00,56.3,41.3,29.94,WNW,292,0.0,0.0,57,0.00,,---,0.00,VWS V14.01,2013-04-22 15:53:00,
2013-04-22 08:58:00,56.7,41.6,29.94,WNW,292,2.5,2.5,57,0.00,,---,0.00,VWS V14.01,2013-04-22 15:58:00,
2013-04-22 09:03:00,56.8,42.2,29.94,North,0,1.1,1.1,58,0.00,,---,0.00,VWS V14.01,2013-04-22 16:03:00,
2013-04-22 09:08:00,56.8,42.2,29.94,WNW,292,0.0,1.1,58,0.00,,---,0.00,VWS V14.01,2013-04-22 16:08:00,
2013-04-22 09:13:00,57.6,42.5,29.94,WNW,292,1.6,1.6,57,0.00,,---,0.00,VWS V14.01,2013-04-22 16:13:00,
2013-04-22 09:18:00,58.1,43.4,29.94,NW,315,3.6,3.6,58,0.00,,---,0.00,VWS V14.01,2013-04-22 16:18:00,
2013-04-22 09:23:00,58.3,44.0,29.94,NNW,338,2.2,2.2,59,0.00,,---,0.00,VWS V14.01,2013-04-22 16:23:00,
2013-04-22 09:28:00,58.6,44.4,29.94,NW,315,0.0,2.7,59,0.00,,---,0.00,VWS V14.01,2013-04-22 16:28:00,
2013-04-22 09:33:00,59.0,44.3,29.94,NW,315,0.0,0.0,58,0.00,,---,0.00,VWS V14.01,2013-04-22 16:33:00,
2013-04-22 09:38:00,59.7,44.9,29.94,WNW,292,0.0,2.9,58,0.00,,---,0.00,VWS V14.01,2013-04-22 16:38:00,
2013-04-22 09:43:00,59.9,45.1,29.94,South,180,0.0,2.2,58,0.00,,---,0.00,VWS V14.01,2013-04-22 16:43:00,
2013-04-22 09:48:00,60.6,45.8,29.94,WNW,292,2.5,2.5,58,0.00,,---,0.00,VWS V14.01,2013-04-22 16:48:00,
2013-04-22 09:53:00,61.5,46.6,29.94,NNW,338,0.0,0.0,58,0.00,,---,0.00,VWS V14.01,2013-04-22 16:53:00,
2013-04-22 09:58:00,62.4,47.0,29.94,North,0,0.0,2.7,57,0.00,,---,0.00,VWS V14.01,2013-04-22 16:58:00,
2013-04-22 10:03:00,65.5,48.9,29.94,NW,315,0.0,2.9,55,0.00,,---,0.00,VWS V14.01,2013-04-22 17:03:00,
2013-04-22 10:09:00,68.9,51.1,29.94,ESE,112,0.0,1.3,53,0.00,,---,0.00,VWS V14.01,2013-04-22 17:09:00,
2013-04-22 10:14:00,71.1,52.0,29.94,North,0,0.0,1.6,51,0.00,,---,0.00,VWS V14.01,2013-04-22 17:14:00,
2013-04-22 10:19:00,70.7,51.7,29.94,WNW,292,4.0,4.0,51,0.00,,---,0.00,VWS V14.01,2013-04-22 17:19:00,
2013-04-22 10:24:00,71.4,52.4,29.94,West,270,2.0,2.5,51,0.00,,---,0.00,VWS V14.01,2013-04-22 17:24:00,
2013-04-22 10:29:00,72.5,52.8,29.94,NW,315,0.0,0.0,50,0.00,,---,0.00,VWS V14.01,2013-04-22 17:29:00,
2013-04-22 10:34:00,71.6,52.0,29.94,NNW,338,0.0,4.0,50,0.00,,---,0.00,VWS V14.01,2013-04-22 17:34:00,
2013-04-22 10:39:00,70.5,51.5,29.94,NNW,338,0.0,2.5,51,0.00,,---,0.00,VWS V14.01,2013-04-22 17:39:00,
2013-04-22 10:44:00,70.3,51.4,29.94,North,0,2.0,2.0,51,0.00,,---,0.00,VWS V14.01,2013-04-22 17:44:00,
2013-04-22 10:49:00,70.3,51.4,29.94,North,0,0.0,2.0,51,0.00,,---,0.00,VWS V14.01,2013-04-22 17:49:00,
2013-04-22 10:54:00,70.3,51.4,29.94,WNW,292,0.0,0.0,51,0.00,,---,0.00,VWS V14.01,2013-04-22 17:54:00,
2013-04-22 10:59:00,70.5,51.5,29.94,North,0,2.0,2.0,51,0.00,,---,0.00,VWS V14.01,2013-04-22 17:59:00,
2013-04-22 11:04:00,70.5,51.0,29.94,WNW,292,4.0,4.0,50,0.00,,---,0.00,VWS V14.01,2013-04-22 18:04:00,
2013-04-22 11:09:00,70.9,51.3,29.94,NNW,338,2.7,3.1,50,0.00,,---,0.00,VWS V14.01,2013-04-22 18:09:00,
2013-04-22 11:14:00,71.2,51.7,29.94,NW,315,3.4,3.4,50,0.00,,---,0.00,VWS V14.01,2013-04-22 18:14:00,
2013-04-22 11:19:00,71.8,51.6,29.94,NNW,338,3.1,3.1,49,0.00,,---,0.00,VWS V14.01,2013-04-22 18:19:00,
2013-04-22 11:24:00,72.0,51.8,29.94,NW,315,4.9,4.9,49,0.00,,---,0.00,VWS V14.01,2013-04-22 18:24:00,
2013-04-22 11:29:00,72.5,51.7,29.94,NW,315,3.6,3.6,48,0.00,,---,0.00,VWS V14.01,2013-04-22 18:29:00,
2013-04-22 11:34:00,73.2,52.4,29.94,West,270,1.6,3.1,48,0.00,,---,0.00,VWS V14.01,2013-04-22 18:34:00,
2013-04-22 11:39:00,73.8,51.7,29.94,NNE,22,2.7,3.8,46,0.00,,---,0.00,VWS V14.01,2013-04-22 18:39:00,
2013-04-22 11:44:00,74.7,52.5,29.94,WNW,292,0.9,6.3,46,0.00,,---,0.00,VWS V14.01,2013-04-22 18:44:00,
2013-04-22 11:49:00,75.0,52.9,29.94,South,180,0.9,1.6,46,0.00,,---,0.00,VWS V14.01,2013-04-22 18:49:00,
2013-04-22 11:54:00,75.9,53.7,29.94,WNW,292,1.3,3.8,46,0.00,,---,0.00,VWS V14.01,2013-04-22 18:54:00,
2013-04-22 11:59:00,76.8,53.9,29.94,West,270,2.2,2.2,45,0.00,,---,0.00,VWS V14.01,2013-04-22 18:59:00,
2013-04-22 12:04:00,77.4,53.8,29.94,NW,315,4.0,4.0,44,0.00,,---,0.00,VWS V14.01,2013-04-22 19:04:00,
2013-04-22 12:09:00,78.3,54.0,29.94,NW,315,2.0,3.1,43,0.00,,---,0.00,VWS V14.01,2013-04-22 19:09:00,
2013-04-22 12:14:00,78.6,54.3,29.91,North,0,2.0,2.0,43,0.00,,---,0.00,VWS V14.01,2013-04-22 19:14:00,
2013-04-22 12:19:00,79.7,54.6,29.91,South,180,1.3,3.8,42,0.00,,---,0.00,VWS V14.01,2013-04-22 19:19:00,
2013-04-22 12:24:00,81.0,55.1,29.91,West,270,3.1,3.1,41,0.00,,---,0.00,VWS V14.01,2013-04-22 19:24:00,
2013-04-22 12:29:00,82.4,55.7,29.91,South,180,2.7,2.9,40,0.00,,---,0.00,VWS V14.01,2013-04-22 19:29:00,
2013-04-22 12:34:00,83.1,55.6,29.91,West,270,1.1,1.1,39,0.00,,---,0.00,VWS V14.01,2013-04-22 19:34:00,
2013-04-22 12:39:00,83.8,56.3,29.91,NW,315,1.6,3.8,39,0.00,,---,0.00,VWS V14.01,2013-04-22 19:39:00,
2013-04-22 12:44:00,83.8,56.3,29.91,NNW,338,4.0,4.0,39,0.00,,---,0.00,VWS V14.01,2013-04-22 19:44:00,
2013-04-22 12:49:00,83.8,56.3,29.91,South,180,0.0,2.7,39,0.00,,---,0.00,VWS V14.01,2013-04-22 19:49:00,
2013-04-22 12:54:00,84.6,56.2,29.91,WNW,292,2.9,2.9,38,0.00,,---,0.00,VWS V14.01,2013-04-22 19:54:00,
2013-04-22 12:59:00,85.3,56.1,29.91,West,270,1.3,2.7,37,0.00,,---,0.00,VWS V14.01,2013-04-22 19:59:00,
2013-04-22 13:04:00,86.4,57.0,29.91,South,180,3.4,3.6,37,0.00,,---,0.00,VWS V14.01,2013-04-22 20:04:00,
2013-04-22 13:09:00,86.9,56.0,29.91,NW,315,3.1,3.1,35,0.00,,---,0.00,VWS V14.01,2013-04-22 20:09:00,
2013-04-22 13:14:00,86.9,56.0,29.91,South,180,0.0,4.0,35,0.00,,---,0.00,VWS V14.01,2013-04-22 20:14:00,
2013-04-22 13:19:00,86.9,56.0,29.91,South,180,4.5,4.7,35,0.00,,---,0.00,VWS V14.01,2013-04-22 20:19:00,
2013-04-22 13:24:00,86.9,56.0,29.91,South,180,2.9,4.3,35,0.00,,---,0.00,VWS V14.01,2013-04-22 20:24:00,
2013-04-22 13:29:00,86.9,56.0,29.88,West,270,1.1,4.0,35,0.00,,---,0.00,VWS V14.01,2013-04-22 20:29:00,
2013-04-22 13:34:00,86.9,56.0,29.88,West,270,2.9,5.4,35,0.00,,---,0.00,VWS V14.01,2013-04-22 20:34:00,
2013-04-22 13:39:00,86.9,56.0,29.88,West,270,1.3,5.8,35,0.00,,---,0.00,VWS V14.01,2013-04-22 20:39:00,
2013-04-22 13:44:00,86.9,56.0,29.88,SSE,158,0.0,3.8,35,0.00,,---,0.00,VWS V14.01,2013-04-22 20:44:00,
2013-04-22 13:49:00,91.0,57.1,29.88,ENE,68,3.8,4.0,32,0.00,,---,0.00,VWS V14.01,2013-04-22 20:49:00,
2013-04-22 13:54:00,91.2,56.4,29.88,South,180,2.5,3.4,31,0.00,,---,0.00,VWS V14.01,2013-04-22 20:54:00,
2013-04-22 13:59:00,91.8,56.0,29.88,South,180,6.0,6.0,30,0.00,,---,0.00,VWS V14.01,2013-04-22 20:59:00,
2013-04-22 14:04:00,91.9,56.1,29.88,South,180,3.6,3.6,30,0.00,,---,0.00,VWS V14.01,2013-04-22 21:04:00,
2013-04-22 14:09:00,92.5,56.6,29.88,West,270,3.8,5.6,30,0.00,,---,0.00,VWS V14.01,2013-04-22 21:09:00,
2013-04-22 14:14:00,92.8,55.9,29.88,NW,315,2.5,3.4,29,0.00,,---,0.00,VWS V14.01,2013-04-22 21:14:00,
2013-04-22 14:19:00,93.4,56.4,29.88,West,270,5.8,5.8,29,0.00,,---,0.00,VWS V14.01,2013-04-22 21:19:00,
2013-04-22 14:24:00,93.7,56.7,29.88,West,270,2.0,5.4,29,0.00,,---,0.00,VWS V14.01,2013-04-22 21:24:00,
2013-04-22 14:29:00,94.1,57.0,29.88,West,270,6.0,6.0,29,0.00,,---,0.00,VWS V14.01,2013-04-22 21:29:00,
2013-04-22 14:34:00,93.7,56.7,29.88,NW,315,4.3,8.5,29,0.00,,---,0.00,VWS V14.01,2013-04-22 21:34:00,
2013-04-22 14:39:00,93.7,56.7,29.88,South,180,3.8,4.3,29,0.00,,---,0.00,VWS V14.01,2013-04-22 21:39:00,
2013-04-22 14:44:00,94.1,57.0,29.88,West,270,3.4,4.7,29,0.00,,---,0.00,VWS V14.01,2013-04-22 21:44:00,
2013-04-22 14:49:00,94.1,57.0,29.88,NW,315,5.8,5.8,29,0.00,,---,0.00,VWS V14.01,2013-04-22 21:49:00,
2013-04-22 14:54:00,94.5,57.3,29.88,South,180,2.5,5.6,29,0.00,,---,0.00,VWS V14.01,2013-04-22 21:54:00,
2013-04-22 14:59:00,93.9,56.9,29.88,WNW,292,1.3,5.6,29,0.00,,---,0.00,VWS V14.01,2013-04-22 21:59:00,
2013-04-22 15:04:00,93.9,56.9,29.88,West,270,2.0,3.6,29,0.00,,---,0.00,VWS V14.01,2013-04-22 22:04:00,
2013-04-22 15:09:00,93.9,56.9,29.88,South,180,4.3,4.9,29,0.00,,---,0.00,VWS V14.01,2013-04-22 22:09:00,
2013-04-22 15:14:00,94.1,57.0,29.85,ESE,112,1.3,4.3,29,0.00,,---,0.00,VWS V14.01,2013-04-22 22:14:00,
2013-04-22 15:19:00,93.6,55.6,29.85,North,0,5.4,5.4,28,0.00,,---,0.00,VWS V14.01,2013-04-22 22:19:00,
2013-04-22 15:24:00,93.6,55.6,29.85,WNW,292,2.7,2.7,28,0.00,,---,0.00,VWS V14.01,2013-04-22 22:24:00,
2013-04-22 15:29:00,93.0,55.1,29.85,West,270,3.8,3.8,28,0.00,,---,0.00,VWS V14.01,2013-04-22 22:29:00,
2013-04-22 15:34:00,93.2,55.3,29.85,NE,45,2.0,3.8,28,0.00,,---,0.00,VWS V14.01,2013-04-22 22:34:00,
2013-04-22 15:39:00,93.7,56.7,29.85,WNW,292,4.7,4.7,29,0.00,,---,0.00,VWS V14.01,2013-04-22 22:39:00,
2013-04-22 15:45:00,93.4,55.4,29.85,West,270,4.0,4.7,28,0.00,,---,0.00,VWS V14.01,2013-04-22 22:45:00,
2013-04-22 15:50:00,93.0,55.1,29.85,West,270,6.3,6.3,28,0.00,,---,0.00,VWS V14.01,2013-04-22 22:50:00,
2013-04-22 15:55:00,93.0,55.1,29.85,South,180,6.0,6.0,28,0.00,,---,0.00,VWS V14.01,2013-04-22 22:55:00,
2013-04-22 16:00:00,93.4,55.4,29.85,South,180,1.3,6.3,28,0.00,,---,0.00,VWS V14.01,2013-04-22 23:00:00,
2013-04-22 16:05:00,92.3,54.5,29.85,WNW,292,4.0,4.0,28,0.00,,---,0.00,VWS V14.01,2013-04-22 23:05:00,
2013-04-22 16:10:00,92.1,54.4,29.85,West,270,3.8,9.8,28,0.00,,---,0.00,VWS V14.01,2013-04-22 23:10:00,
2013-04-22 16:15:00,91.2,53.6,29.85,SE,135,6.5,6.5,28,0.00,,---,0.00,VWS V14.01,2013-04-22 23:15:00,
2013-04-22 16:20:00,90.7,53.1,29.85,WNW,292,3.1,3.1,28,0.00,,---,0.00,VWS V14.01,2013-04-22 23:20:00,
2013-04-22 16:25:00,90.0,52.5,29.85,NNE,22,2.2,6.0,28,0.00,,---,0.00,VWS V14.01,2013-04-22 23:25:00,
2013-04-22 16:30:00,90.0,52.5,29.85,South,180,2.9,4.0,28,0.00,,---,0.00,VWS V14.01,2013-04-22 23:30:00,
2013-04-22 16:35:00,89.2,51.9,29.85,West,270,2.5,2.9,28,0.00,,---,0.00,VWS V14.01,2013-04-22 23:35:00,
2013-04-22 16:40:00,88.2,51.0,29.85,ENE,68,2.5,3.6,28,0.00,,---,0.00,VWS V14.01,2013-04-22 23:40:00,
2013-04-22 16:45:00,87.6,51.5,29.85,ESE,112,2.9,4.0,29,0.00,,---,0.00,VWS V14.01,2013-04-22 23:45:00,
2013-04-22 16:50:00,87.4,51.3,29.85,West,270,1.6,3.8,29,0.00,,---,0.00,VWS V14.01,2013-04-22 23:50:00,
2013-04-22 16:55:00,87.1,51.0,29.85,South,180,3.1,3.8,29,0.00,,---,0.00,VWS V14.01,2013-04-22 23:55:00,
2013-04-22 17:00:00,86.2,50.2,29.85,WNW,292,1.3,4.3,29,0.00,,---,0.00,VWS V14.01,2013-04-23 00:00:00,
2013-04-22 17:05:00,86.2,50.2,29.85,South,180,2.9,2.9,29,0.00,,---,0.00,VWS V14.01,2013-04-23 00:05:00,
2013-04-22 17:10:00,85.3,50.4,29.85,South,180,3.1,3.1,30,0.00,,---,0.00,VWS V14.01,2013-04-23 00:10:00,
2013-04-22 17:15:00,84.7,49.0,29.85,East,90,2.0,6.0,29,0.00,,---,0.00,VWS V14.01,2013-04-23 00:15:00,
2013-04-22 17:20:00,84.6,48.8,29.85,West,270,1.3,2.5,29,0.00,,---,0.00,VWS V14.01,2013-04-23 00:20:00,
2013-04-22 17:25:00,84.2,49.4,29.85,South,180,3.4,3.4,30,0.00,,---,0.00,VWS V14.01,2013-04-23 00:25:00,
2013-04-22 17:30:00,83.7,49.0,29.85,SE,135,3.1,3.4,30,0.00,,---,0.00,VWS V14.01,2013-04-23 00:30:00,
2013-04-22 17:35:00,83.7,49.0,29.85,SSE,158,5.4,5.4,30,0.00,,---,0.00,VWS V14.01,2013-04-23 00:35:00,
2013-04-22 17:40:00,82.6,48.0,29.85,SE,135,3.6,6.3,30,0.00,,---,0.00,VWS V14.01,2013-04-23 00:40:00,
2013-04-22 17:45:00,82.2,48.6,29.85,South,180,3.4,3.4,31,0.00,,---,0.00,VWS V14.01,2013-04-23 00:45:00,
2013-04-22 17:50:00,81.7,48.1,29.85,South,180,5.6,5.6,31,0.00,,---,0.00,VWS V14.01,2013-04-23 00:50:00,
2013-04-22 17:55:00,81.3,47.8,29.85,WNW,292,2.5,6.0,31,0.00,,---,0.00,VWS V14.01,2013-04-23 00:55:00,
2013-04-22 18:00:00,80.8,47.4,29.85,NW,315,2.2,6.3,31,0.00,,---,0.00,VWS V14.01,2013-04-23 01:00:00,
2013-04-22 18:05:00,80.6,47.2,29.85,East,90,5.6,5.6,31,0.00,,---,0.00,VWS V14.01,2013-04-23 01:05:00,
2013-04-22 18:10:00,80.2,46.9,29.85,South,180,3.8,3.8,31,0.00,,---,0.00,VWS V14.01,2013-04-23 01:10:00,
2013-04-22 18:15:00,79.9,46.6,29.85,South,180,2.7,5.6,31,0.00,,---,0.00,VWS V14.01,2013-04-23 01:15:00,
2013-04-22 18:20:00,79.3,46.1,29.85,East,90,0.0,4.9,31,0.00,,---,0.00,VWS V14.01,2013-04-23 01:20:00,
2013-04-22 18:25:00,78.8,46.5,29.85,SSE,158,2.7,3.4,32,0.00,,---,0.00,VWS V14.01,2013-04-23 01:25:00,
2013-04-22 18:30:00,78.4,46.2,29.85,East,90,0.0,3.4,32,0.00,,---,0.00,VWS V14.01,2013-04-23 01:30:00,
2013-04-22 18:35:00,78.3,46.0,29.85,NE,45,3.4,3.8,32,0.00,,---,0.00,VWS V14.01,2013-04-23 01:35:00,
2013-04-22 18:40:00,77.9,45.7,29.85,SSE,158,3.1,4.7,32,0.00,,---,0.00,VWS V14.01,2013-04-23 01:40:00,
2013-04-22 18:45:00,77.5,46.2,29.85,ESE,112,4.0,4.3,33,0.00,,---,0.00,VWS V14.01,2013-04-23 01:45:00,
2013-04-22 18:50:00,77.2,45.9,29.85,SW,225,2.5,4.9,33,0.00,,---,0.00,VWS V14.01,2013-04-23 01:50:00,
2013-04-22 18:55:00,76.8,45.6,29.85,South,180,2.5,3.4,33,0.00,,---,0.00,VWS V14.01,2013-04-23 01:55:00,
2013-04-22 19:00:00,76.5,46.0,29.85,West,270,0.9,0.9,34,0.00,,---,0.00,VWS V14.01,2013-04-23 02:00:00,
2013-04-22 19:05:00,76.3,45.9,29.85,SW,225,2.9,2.9,34,0.00,,---,0.00,VWS V14.01,2013-04-23 02:05:00,
2013-04-22 19:11:00,75.7,45.4,29.85,SSE,158,0.0,2.0,34,0.00,,---,0.00,VWS V14.01,2013-04-23 02:11:00,
2013-04-22 19:17:00,75.4,45.1,29.85,SE,135,0.0,0.0,34,0.00,,---,0.00,VWS V14.01,2013-04-23 02:17:00,
2013-04-22 19:22:00,74.8,45.4,29.85,South,180,0.0,3.4,35,0.00,,---,0.00,VWS V14.01,2013-04-23 02:22:00,
2013-04-22 19:27:00,74.5,45.1,29.85,SE,135,2.9,2.9,35,0.00,,---,0.00,VWS V14.01,2013-04-23 02:27:00,
2013-04-22 19:32:00,74.1,44.8,29.85,SE,135,2.7,2.9,35,0.00,,---,0.00,VWS V14.01,2013-04-23 02:32:00,
2013-04-22 19:37:00,73.9,45.3,29.85,ESE,112,1.6,4.3,36,0.00,,---,0.00,VWS V14.01,2013-04-23 02:37:00,
2013-04-22 19:42:00,73.6,45.0,29.85,SE,135,0.0,1.6,36,0.00,,---,0.00,VWS V14.01,2013-04-23 02:42:00,
2013-04-22 19:47:00,73.0,45.2,29.85,South,180,2.0,2.0,37,0.00,,---,0.00,VWS V14.01,2013-04-23 02:47:00,
2013-04-22 19:52:00,72.9,45.1,29.85,SE,135,0.0,0.0,37,0.00,,---,0.00,VWS V14.01,2013-04-23 02:52:00,
2013-04-22 19:57:00,72.3,44.6,29.85,SE,135,0.0,0.0,37,0.00,,---,0.00,VWS V14.01,2013-04-23 02:57:00,
2013-04-22 20:02:00,72.1,44.5,29.85,SE,135,0.0,0.0,37,0.00,,---,0.00,VWS V14.01,2013-04-23 03:02:00,
2013-04-22 20:07:00,71.8,44.8,29.85,SSE,158,1.3,1.3,38,0.00,,---,0.00,VWS V14.01,2013-04-23 03:07:00,
2013-04-22 20:12:00,71.4,45.2,29.85,SSE,158,0.9,1.3,39,0.00,,---,0.00,VWS V14.01,2013-04-23 03:12:00,
2013-04-22 20:17:00,71.1,44.9,29.85,ESE,112,1.6,1.6,39,0.00,,---,0.00,VWS V14.01,2013-04-23 03:17:00,
2013-04-22 20:22:00,70.7,44.5,29.85,SSE,158,0.0,0.0,39,0.00,,---,0.00,VWS V14.01,2013-04-23 03:22:00,
2013-04-22 20:27:00,70.3,44.2,29.85,SE,135,0.0,0.0,39,0.00,,---,0.00,VWS V14.01,2013-04-23 03:27:00,
2013-04-22 20:32:00,70.0,43.9,29.85,ENE,68,0.0,0.0,39,0.00,,---,0.00,VWS V14.01,2013-04-23 03:32:00,
2013-04-22 20:37:00,69.8,43.8,29.85,East,90,0.0,0.0,39,0.00,,---,0.00,VWS V14.01,2013-04-23 03:37:00,
2013-04-22 20:42:00,69.4,44.1,29.85,East,90,0.0,0.0,40,0.00,,---,0.00,VWS V14.01,2013-04-23 03:42:00,
2013-04-22 20:47:00,68.9,43.6,29.85,West,270,0.0,0.0,40,0.00,,---,0.00,VWS V14.01,2013-04-23 03:47:00,
2013-04-22 20:52:00,68.5,43.3,29.85,SE,135,0.0,0.0,40,0.00,,---,0.00,VWS V14.01,2013-04-23 03:52:00,
2013-04-22 20:57:00,68.4,43.8,29.85,East,90,0.0,0.0,41,0.00,,---,0.00,VWS V14.01,2013-04-23 03:57:00,
2013-04-22 21:01:00,68.0,42.8,29.85,East,90,0.0,0.0,40,0.00,,---,0.00,VWS V14.01,2013-04-23 04:01:00,
2013-04-22 21:02:00,68.0,42.8,29.85,ENE,68,0.0,0.0,40,0.00,,---,0.00,VWS V14.01,2013-04-23 04:02:00,
2013-04-22 21:03:00,68.0,42.8,29.85,ENE,68,0.0,0.0,40,0.00,,---,0.00,VWS V14.01,2013-04-23 04:03:00,
2013-04-22 21:07:00,67.8,43.3,29.85,NE,45,0.0,0.0,41,0.00,,---,0.00,VWS V14.01,2013-04-23 04:07:00,
2013-04-22 21:10:00,67.6,43.1,29.85,East,90,0.0,0.0,41,0.00,,---,0.00,VWS V14.01,2013-04-23 04:10:00,
2013-04-22 21:15:00,67.3,42.8,29.85,East,90,1.1,1.1,41,0.00,,---,0.00,VWS V14.01,2013-04-23 04:15:00,
2013-04-22 21:20:00,66.9,42.5,29.85,North,0,0.0,0.0,41,0.00,,---,0.00,VWS V14.01,2013-04-23 04:20:00,
2013-04-22 21:25:00,66.7,42.3,29.85,SSE,158,0.0,0.0,41,0.00,,---,0.00,VWS V14.01,2013-04-23 04:25:00,
2013-04-22 21:30:00,66.6,42.8,29.85,South,180,0.0,0.0,42,0.00,,---,0.00,VWS V14.01,2013-04-23 04:30:00,
2013-04-22 21:35:00,66.2,42.5,29.85,South,180,0.0,0.0,42,0.00,,---,0.00,VWS V14.01,2013-04-23 04:35:00,
2013-04-22 21:40:00,66.0,42.3,29.85,East,90,0.0,0.0,42,0.00,,---,0.00,VWS V14.01,2013-04-23 04:40:00,
2013-04-22 21:45:00,65.7,42.0,29.88,NE,45,0.0,0.0,42,0.00,,---,0.00,VWS V14.01,2013-04-23 04:45:00,
2013-04-22 21:50:00,65.5,42.4,29.88,SE,135,1.3,2.2,43,0.00,,---,0.00,VWS V14.01,2013-04-23 04:50:00,
2013-04-22 21:55:00,65.1,42.1,29.88,SE,135,1.1,1.6,43,0.00,,---,0.00,VWS V14.01,2013-04-23 04:55:00,
2013-04-22 22:00:00,64.9,41.9,29.88,SSE,158,0.0,0.0,43,0.00,,---,0.00,VWS V14.01,2013-04-23 05:00:00,
2013-04-22 22:05:00,64.8,41.8,29.88,ENE,68,0.0,0.0,43,0.00,,---,0.00,VWS V14.01,2013-04-23 05:05:00,
2013-04-22 22:10:00,64.8,41.8,29.88,East,90,0.0,2.7,43,0.00,,---,0.00,VWS V14.01,2013-04-23 05:10:00,
2013-04-22 22:15:00,64.4,42.0,29.88,ESE,112,2.2,2.7,44,0.00,,---,0.00,VWS V14.01,2013-04-23 05:15:00,
2013-04-22 22:20:00,64.2,41.9,29.88,SSE,158,2.0,2.2,44,0.00,,---,0.00,VWS V14.01,2013-04-23 05:20:00,
2013-04-22 22:25:00,63.9,41.5,29.88,WNW,292,1.3,1.3,44,0.00,,---,0.00,VWS V14.01,2013-04-23 05:25:00,
2013-04-22 22:30:00,63.7,41.4,29.88,SE,135,1.3,3.8,44,0.00,,---,0.00,VWS V14.01,2013-04-23 05:30:00,
2013-04-22 22:35:00,63.5,41.2,29.88,East,90,0.0,1.3,44,0.00,,---,0.00,VWS V14.01,2013-04-23 05:35:00,
2013-04-22 22:40:00,63.3,41.1,29.88,SE,135,0.0,1.3,44,0.00,,---,0.00,VWS V14.01,2013-04-23 05:40:00,
2013-04-22 22:45:00,63.3,41.1,29.88,NW,315,0.0,3.6,44,0.00,,---,0.00,VWS V14.01,2013-04-23 05:45:00,
2013-04-22 22:50:00,63.3,41.1,29.88,SSE,158,2.9,2.9,44,0.00,,---,0.00,VWS V14.01,2013-04-23 05:50:00,
2013-04-22 22:55:00,62.8,41.2,29.88,SSE,158,2.7,2.7,45,0.00,,---,0.00,VWS V14.01,2013-04-23 05:55:00,
2013-04-22 23:00:00,62.8,41.2,29.85,SSE,158,0.0,2.2,45,0.00,,---,0.00,VWS V14.01,2013-04-23 06:00:00,
2013-04-22 23:05:00,62.8,41.2,29.85,NNW,338,0.0,1.6,45,0.00,,---,0.00,VWS V14.01,2013-04-23 06:05:00,
2013-04-22 23:10:00,61.9,40.9,29.85,NE,45,1.1,1.1,46,0.00,,---,0.00,VWS V14.01,2013-04-23 06:10:00,
2013-04-22 23:15:00,61.9,40.9,29.88,NE,45,3.4,3.4,46,0.00,,---,0.00,VWS V14.01,2013-04-23 06:15:00,
2013-04-22 23:20:00,62.1,40.5,29.88,North,0,2.2,3.6,45,0.00,,---,0.00,VWS V14.01,2013-04-23 06:20:00,
2013-04-22 23:25:00,62.2,40.1,29.88,East,90,4.7,4.7,44,0.00,,---,0.00,VWS V14.01,2013-04-23 06:25:00,
2013-04-22 23:30:00,62.2,40.1,29.85,NE,45,4.7,4.7,44,0.00,,---,0.00,VWS V14.01,2013-04-23 06:30:00,
2013-04-22 23:35:00,62.6,39.8,29.85,NE,45,2.5,4.0,43,0.00,,---,0.00,VWS V14.01,2013-04-23 06:35:00,
2013-04-22 23:40:00,62.6,39.8,29.85,ENE,68,3.6,3.6,43,0.00,,---,0.00,VWS V14.01,2013-04-23 06:40:00,
2013-04-22 23:45:00,62.4,39.7,29.85,SSE,158,0.0,2.5,43,0.00,,---,0.00,VWS V14.01,2013-04-23 06:45:00,
2013-04-22 23:51:00,62.2,39.5,29.85,ENE,68,3.6,3.6,43,0.00,,---,0.00,VWS V14.01,2013-04-23 06:51:00,
2013-04-22 23:56:00,62.1,38.7,29.85,SE,135,4.9,4.9,42,0.00,,---,0.00,VWS V14.01,2013-04-23 06:56:00,